Вернуться в каталог

EXPLORER 7

АктивенНаукаVLEO
NORAD 22·PAYLOAD·🇺🇸 United States

Запущен Oct 13, 1959 с Cape Canaveral Space Force Station

Loading…

Ближайшие Пролёты (ближайшие 24 часа)

TLE

СвежийSource: Space-Track

Эпоха: Sep 14, 2026, 19:54 UTC

1 00022U 59009A   26257.82985624  .00013196  00000-0  41283-3 0  9994
2 00022  50.2419  16.1956 0074072 127.3224 233.4517 15.30765865814077

Отслеживайте EXPLORER 7 в реальном времени с AllMySat

Download on the App Store